Hourly Data Report for January 17, 2022

OTTAWA INTL A
ONTARIO
Current Station Operator: NAVCAN

45°19'00.000" N
75°40'00.000" W
114.90 m
6106001
71628
YOW

Download Data

Hourly Data (January 2022)
Hourly Data Report for January 17, 2022
TIME
LST
Temp Definition
°C
Dew Point Definition
°C
Rel Hum Definition
%
Precip. Amount Definition
mm

Wind Dir Definition
10's deg

Wind Spd Definition
km/h
Visibility Definition
km
Stn Press Definition
kPa
Hmdx Definition


Wind Chill Definition


Weather Definition


00:00 -16.5 -20.7 70   7 16 24.1 99.88   -25 LegendNANA
01:00 -16.0 -20.3 70   6 13 8.1 99.78   -24 Snow
02:00 -15.6 -17.9 83   4 26 1.6 99.59   -26 Snow
03:00 -14.6 -16.7 84   5 27 1.6 99.35   -25 Snow,Blowing Snow
04:00 -13.5 -15.5 85   5 26 1.6 99.19   -23 Snow,Blowing Snow
05:00 -11.9 -13.7 87   4 27 3.2 98.89   -22 Snow,Blowing Snow
06:00 -10.1 -11.8 88   5 35 3.2 98.62   -20 Snow,Blowing Snow
07:00 -8.3 -9.8 89   5 38 1.6 98.34   -18 Snow,Blowing Snow
08:00 -6.5 -7.7 91   5 31 0.4 98.29   -15 Heavy Snow,Blowing Snow
09:00 -7.0 -8.0 93   3 29 0.2 98.02   -15 Heavy Snow,Blowing Snow
10:00 -6.3 -7.5 92   3 29 0.8 97.88   -15 Moderate Snow,Blowing Snow
11:00 -5.7 -6.9 91   3 30 0.8 97.68   -14 Moderate Snow,Blowing Snow
12:00 -5.3 -6.4 92   1 23 0.8 97.41   -12 Moderate Snow,Blowing Snow
13:00 -4.5 -5.8 91   1 19 1.6 97.23   -11 Snow,Blowing Snow
14:00 -4.9 -6.1 91   35 19 0.8 97.12   -11 Moderate Snow
15:00 -4.6 -6.0 90   1 22 1.2 97.10   -11 Snow
16:00 -5.5 -7.0 89   29 23 4.8 97.18   -13 Snow
17:00 -6.9 -8.4 89   31 34 1.6 97.29   -16 Freezing Drizzle, Snow
18:00 -7.0 -8.7 88   31 25 2.4 97.43   -15 Snow
19:00 -6.7 -8.3 88   29 30 11.3 97.55   -15 Snow
20:00 -7.2 -9.1 87   29 26 12.9 97.67   -15 Snow
21:00 -7.5 -9.4 86   30 29 12.9 97.84   -16 Snow
22:00 -7.3 -9.6 84   30 34 12.9 97.99   -16 Snow
23:00 -8.2 -11.3 79   30 35 12.9 98.15   -18 LegendNANA

Notes on Data Quality.

Legend

  • E = Estimated
  • M = Missing
  • NA = Not Available*
  • [empty] = Indicates an unobserved value
Date modified: